Darstellungsparameter: Aktuell verwendete Einstellungen:
Skalierung der Graphiken ... ?
xyx+y,   Skalierungsfaktor:      Skalierung: Modus: x, Faktor: 1
Darstellungszeitraum ... ?
Vom - - bis: - -   Zeitraum: 30.11.2020 - 30.11.2020
Min/Max/Avg-Anzeige ... ?
Zeige MMA aktuell
Zeige MMA Monat
Zeige MMA alles
Zeige --A aktuell
Zeige --A Monat
Zeige --A alles
Keine MMA-Anzeige
MMA:
Average (ber die Originaldaten)
MMA-Basis: 30.11.2020 - 30.11.2020
Quicknavigation für Darstellung... ?
Tage:      1T, 2T, 3T, 5T -1T -2T -3T -5T +1T +2T +3T +5T
Wochen: 1W, 2W, 3W -1W -2W -3W +1W +2W +3W
Monate: 1M, 3M, 6M -1M -3M -6M +1M +3M +6M
Jahre:    1J, 3J, 5J, 10J -1J -3J -5J -10J +1J +3J +5J +10J
Nutze für die Darstellung ... ?
Originaldaten oder Mittelwerte auf ...
Stundenbasis Tagesbasis Wochenbasis
Monatsbasis Jahresbasis      Datenbasis: Original-Daten
Darstellen als:
Statistik (Auto) Statistik J:M      Darstellung:

Der gewünschte Datumsbereich war nicht gültig/verfügbar und wurde korrigiert....
Das angegebene Enddatum (29.03.2021 23:59:59) liegt in der Zukunft.
Das angegebene Startdatum (29.03.2021 00:00:00) liegt in der Zukunft.


Zur Graphik,    zurück zur Übersicht aller Sensoren.
 
Tabellarische Datenbersicht: ?
 
Sensor: Nr:Datum:Temp:Abs-Feuchte:Windchill:Wind:
Aussen-T/F 1 30-11-2020 01:00:00 -4.2 C 3.39 g/m*3 -4.2 C 0 km/h
2 30-11-2020 01:05:00 -4.2 C 3.39 g/m*3 -4.2 C 0 km/h
3 30-11-2020 01:10:00 -4.3 C 3.37 g/m*3 -4.3 C 0 km/h
4 30-11-2020 01:15:00 -4.3 C 3.37 g/m*3 -4.3 C 0 km/h
5 30-11-2020 01:20:00 -4.3 C 3.37 g/m*3 -4.3 C 0 km/h
6 30-11-2020 01:25:00 -4.3 C 3.37 g/m*3 -4.3 C 0 km/h
7 30-11-2020 01:30:00 -4.4 C 3.34 g/m*3 -4.4 C 0 km/h
8 30-11-2020 01:35:00 -4.4 C 3.34 g/m*3 -4.4 C 0 km/h
9 30-11-2020 01:40:00 -4.4 C 3.34 g/m*3 -4.4 C 0 km/h
10 30-11-2020 01:45:00 -4.4 C 3.34 g/m*3 -4.4 C 0 km/h
11 30-11-2020 01:50:00 -4.3 C 3.37 g/m*3 -4.3 C 0 km/h
12 30-11-2020 01:55:00 -4.2 C 3.39 g/m*3 -4.2 C 0 km/h
13 30-11-2020 02:00:00 -4.1 C 3.45 g/m*3 -4.1 C 0 km/h
14 30-11-2020 02:05:00 -4.2 C 3.43 g/m*3 -4.2 C 0 km/h
15 30-11-2020 02:10:00 -4.3 C 3.37 g/m*3 -4.3 C 0 km/h
16 30-11-2020 02:15:00 -4.4 C 3.34 g/m*3 -4.4 C 0 km/h
17 30-11-2020 02:20:00 -4.4 C 3.34 g/m*3 -4.4 C 0 km/h
18 30-11-2020 02:25:00 -4.6 C 3.29 g/m*3 -4.6 C 0 km/h
19 30-11-2020 02:30:00 -4.6 C 3.29 g/m*3 -4.6 C 0 km/h
20 30-11-2020 02:35:00 -4.7 C 3.27 g/m*3 -4.7 C 0 km/h
21 30-11-2020 02:40:00 -4.8 C 3.25 g/m*3 -4.8 C 0 km/h
22 30-11-2020 02:45:00 -4.8 C 3.25 g/m*3 -4.8 C 0 km/h
23 30-11-2020 02:50:00 -4.8 C 3.25 g/m*3 -4.8 C 0 km/h
24 30-11-2020 02:55:00 -4.9 C 3.22 g/m*3 -4.9 C 0 km/h
25 30-11-2020 03:00:00 -4.9 C 3.22 g/m*3 -4.9 C 0 km/h
Sensor: Nr:Datum:Temp:Abs-Feuchte:Windchill:Wind:
Aussen-T/F 26 30-11-2020 03:05:00 -4.9 C 3.22 g/m*3 -4.9 C 0 km/h
27 30-11-2020 03:10:00 -4.9 C 3.22 g/m*3 -4.9 C 0 km/h
28 30-11-2020 03:15:00 -4.9 C 3.22 g/m*3 -4.9 C 0 km/h
29 30-11-2020 03:20:00 -4.9 C 3.22 g/m*3 -4.9 C 0 km/h
30 30-11-2020 03:25:00 -4.8 C 3.25 g/m*3 -4.8 C 0 km/h
31 30-11-2020 03:30:00 -4.8 C 3.25 g/m*3 -4.8 C 0 km/h
32 30-11-2020 03:35:00 -4.8 C 3.25 g/m*3 -4.8 C 0 km/h
33 30-11-2020 03:40:00 -4.9 C 3.22 g/m*3 -4.9 C 0 km/h
34 30-11-2020 03:45:00 -4.9 C 3.22 g/m*3 -4.9 C 0 km/h
35 30-11-2020 03:50:00 -5 C 3.2 g/m*3 -5 C 0 km/h
36 30-11-2020 03:55:00 -5.1 C 3.18 g/m*3 -5.1 C 0 km/h
37 30-11-2020 04:00:00 -5.1 C 3.18 g/m*3 -5.1 C 0 km/h
38 30-11-2020 04:05:00 -5.2 C 3.15 g/m*3 -5.2 C 0 km/h
39 30-11-2020 04:10:00 -5.2 C 3.15 g/m*3 -5.2 C 0 km/h
40 30-11-2020 04:15:00 -5.2 C 3.15 g/m*3 -5.2 C 0 km/h
41 30-11-2020 04:20:00 -5.3 C 3.13 g/m*3 -5.3 C 0 km/h
42 30-11-2020 04:25:00 -5.3 C 3.13 g/m*3 -5.3 C 0 km/h
43 30-11-2020 04:30:00 -5.3 C 3.13 g/m*3 -5.3 C 0 km/h
44 30-11-2020 04:35:00 -5.3 C 3.13 g/m*3 -5.3 C 0 km/h
45 30-11-2020 04:40:00 -5.3 C 3.13 g/m*3 -5.3 C 0 km/h
46 30-11-2020 04:45:00 -5.3 C 3.13 g/m*3 -5.3 C 0 km/h
47 30-11-2020 04:50:00 -5.2 C 3.15 g/m*3 -5.2 C 0 km/h
48 30-11-2020 04:55:00 -5.2 C 3.15 g/m*3 -5.2 C 0 km/h
49 30-11-2020 05:00:00 -5.2 C 3.15 g/m*3 -5.2 C 0 km/h
50 30-11-2020 05:05:00 -5.3 C 3.13 g/m*3 -5.3 C 0 km/h
Sensor: Nr:Datum:Temp:Abs-Feuchte:Windchill:Wind:
Aussen-T/F 51 30-11-2020 05:10:00 -5.3 C 3.13 g/m*3 -5.3 C 0 km/h
52 30-11-2020 05:15:00 -5.4 C 3.11 g/m*3 -5.4 C 0 km/h
53 30-11-2020 05:20:00 -5.4 C 3.11 g/m*3 -5.4 C 0 km/h
54 30-11-2020 05:25:00 -5.5 C 3.09 g/m*3 -5.5 C 0 km/h
55 30-11-2020 05:30:00 -5.6 C 3.06 g/m*3 -5.6 C 0 km/h
56 30-11-2020 05:35:00 -5.5 C 3.09 g/m*3 -5.5 C 0 km/h
57 30-11-2020 05:40:00 -5.4 C 3.11 g/m*3 -5.4 C 0 km/h
58 30-11-2020 05:45:00 -5.3 C 3.17 g/m*3 -5.3 C 0 km/h
59 30-11-2020 05:50:00 -5.2 C 3.19 g/m*3 -5.2 C 0 km/h
60 30-11-2020 05:55:00 -5.2 C 3.19 g/m*3 -5.2 C 0 km/h
61 30-11-2020 06:00:00 -5.2 C 3.19 g/m*3 -5.2 C 0 km/h
62 30-11-2020 06:05:00 -5.2 C 3.19 g/m*3 -5.2 C 0 km/h
63 30-11-2020 06:10:00 -5.1 C 3.21 g/m*3 -5.1 C 0 km/h
64 30-11-2020 06:15:00 -5.1 C 3.21 g/m*3 -5.1 C 0 km/h
65 30-11-2020 06:20:00 -5.1 C 3.21 g/m*3 -5.1 C 0 km/h
66 30-11-2020 06:25:00 -5.1 C 3.21 g/m*3 -5.1 C 0 km/h
67 30-11-2020 06:30:00 -5.2 C 3.15 g/m*3 -5.2 C 0 km/h
68 30-11-2020 06:35:00 -5.3 C 3.13 g/m*3 -5.3 C 0 km/h
69 30-11-2020 06:40:00 -5.4 C 3.11 g/m*3 -5.4 C 0 km/h
70 30-11-2020 06:45:00 -5.4 C 3.11 g/m*3 -5.4 C 3.2 km/h
71 30-11-2020 06:50:00 -5.3 C 3.17 g/m*3 -5.3 C 0 km/h
72 30-11-2020 06:55:00 -5.2 C 3.19 g/m*3 -5.2 C 0 km/h
73 30-11-2020 07:00:00 -5.1 C 3.21 g/m*3 -5.1 C 0 km/h
74 30-11-2020 07:05:00 -5.1 C 3.21 g/m*3 -5.1 C 0 km/h
75 30-11-2020 07:10:00 -5 C 3.23 g/m*3 -5 C 0 km/h
Sensor: Nr:Datum:Temp:Abs-Feuchte:Windchill:Wind:
Aussen-T/F 76 30-11-2020 07:15:00 -4.9 C 3.26 g/m*3 -4.9 C 1.6 km/h
77 30-11-2020 07:20:00 -4.9 C 3.26 g/m*3 -4.9 C 0 km/h
78 30-11-2020 07:25:00 -4.9 C 3.26 g/m*3 -4.9 C 0 km/h
79 30-11-2020 07:30:00 -5 C 3.23 g/m*3 -5 C 0 km/h
80 30-11-2020 07:35:00 -5.1 C 3.21 g/m*3 -5.1 C 0 km/h
81 30-11-2020 07:40:00 -5.2 C 3.15 g/m*3 -5.2 C 0 km/h
82 30-11-2020 07:45:00 -5.3 C 3.13 g/m*3 -5.3 C 0 km/h
83 30-11-2020 07:50:00 -5.4 C 3.11 g/m*3 -5.4 C 0 km/h
84 30-11-2020 07:55:00 -5.6 C 3.06 g/m*3 -5.6 C 0 km/h
85 30-11-2020 08:00:00 -5.7 C 3.04 g/m*3 -5.7 C 1.6 km/h
86 30-11-2020 08:05:00 -5.8 C 3.02 g/m*3 -5.8 C 0 km/h
87 30-11-2020 08:10:00 -5.8 C 3.02 g/m*3 -5.8 C 1.6 km/h
88 30-11-2020 08:15:00 -5.8 C 3.02 g/m*3 -5.8 C 0 km/h
89 30-11-2020 08:20:00 -5.8 C 3.02 g/m*3 -5.8 C 0 km/h
90 30-11-2020 08:25:00 -5.7 C 3.04 g/m*3 -5.7 C 1.6 km/h
91 30-11-2020 08:30:00 -5.7 C 3.04 g/m*3 -5.7 C 0 km/h
92 30-11-2020 08:35:00 -5.7 C 3.04 g/m*3 -5.7 C 0 km/h
93 30-11-2020 08:40:00 -5.8 C 3.02 g/m*3 -5.8 C 0 km/h
94 30-11-2020 08:45:00 -5.8 C 3.02 g/m*3 -5.8 C 0 km/h
95 30-11-2020 08:50:00 -5.8 C 3.02 g/m*3 -5.8 C 0 km/h
96 30-11-2020 08:55:00 -5.8 C 3.02 g/m*3 -5.8 C 0 km/h
97 30-11-2020 09:00:00 -5.8 C 3.02 g/m*3 -5.8 C 0 km/h
98 30-11-2020 09:05:00 -5.7 C 3.07 g/m*3 -5.7 C 0 km/h
99 30-11-2020 09:10:00 -5.6 C 3.1 g/m*3 -5.6 C 1.6 km/h
100 30-11-2020 09:15:00 -5.5 C 3.12 g/m*3 -5.5 C 0 km/h
Sensor: Nr:Datum:Temp:Abs-Feuchte:Windchill:Wind:
Aussen-T/F 101 30-11-2020 09:20:00 -5.4 C 3.11 g/m*3 -5.4 C 0 km/h
102 30-11-2020 09:25:00 -5.4 C 3.11 g/m*3 -5.4 C 0 km/h
103 30-11-2020 09:30:00 -5.4 C 3.11 g/m*3 -5.4 C 0 km/h
104 30-11-2020 09:35:00 -5.4 C 3.14 g/m*3 -5.4 C 0 km/h
105 30-11-2020 09:40:00 -5.4 C 3.14 g/m*3 -5.4 C 0 km/h
106 30-11-2020 09:45:00 -5.3 C 3.17 g/m*3 -5.3 C 0 km/h
107 30-11-2020 09:50:00 -5.3 C 3.17 g/m*3 -5.3 C 0 km/h
108 30-11-2020 09:55:00 -5.3 C 3.17 g/m*3 -5.3 C 0 km/h
109 30-11-2020 10:00:00 -5.2 C 3.19 g/m*3 -5.2 C 0 km/h
110 30-11-2020 10:05:00 -5.2 C 3.19 g/m*3 -5.2 C 0 km/h
111 30-11-2020 10:10:00 -5.1 C 3.21 g/m*3 -5.1 C 1.6 km/h
112 30-11-2020 10:15:00 -5.1 C 3.21 g/m*3 -5.1 C 0 km/h
113 30-11-2020 10:20:00 -5 C 3.23 g/m*3 -5 C 3.2 km/h
114 30-11-2020 10:25:00 -4.9 C 3.26 g/m*3 -4.9 C 1.6 km/h
115 30-11-2020 10:30:00 -4.8 C 3.28 g/m*3 -4.8 C 0 km/h
116 30-11-2020 10:35:00 -4.7 C 3.31 g/m*3 -4.7 C 0 km/h
117 30-11-2020 10:40:00 -4.6 C 3.33 g/m*3 -4.6 C 0 km/h
118 30-11-2020 10:45:00 -4.5 C 3.35 g/m*3 -4.5 C 0 km/h
119 30-11-2020 10:50:00 -4.4 C 3.38 g/m*3 -4.4 C 0 km/h
120 30-11-2020 10:55:00 -4.3 C 3.4 g/m*3 -4.3 C 0 km/h
121 30-11-2020 11:00:00 -4.3 C 3.4 g/m*3 -4.3 C 1.6 km/h
122 30-11-2020 11:05:00 -4.2 C 3.43 g/m*3 -4.2 C 0 km/h
123 30-11-2020 11:10:00 -4.1 C 3.45 g/m*3 -4.1 C 0 km/h
124 30-11-2020 11:15:00 -3.9 C 3.5 g/m*3 -3.9 C 0 km/h
125 30-11-2020 11:20:00 -3.8 C 3.53 g/m*3 -3.8 C 0 km/h
Sensor: Nr:Datum:Temp:Abs-Feuchte:Windchill:Wind:
Aussen-T/F 126 30-11-2020 11:25:00 -3.7 C 3.55 g/m*3 -3.7 C 0 km/h
127 30-11-2020 11:30:00 -3.6 C 3.58 g/m*3 -3.6 C 3.2 km/h
128 30-11-2020 11:35:00 -3.5 C 3.6 g/m*3 -3.5 C 3.2 km/h
129 30-11-2020 11:40:00 -3.3 C 3.65 g/m*3 -3.3 C 3.2 km/h
130 30-11-2020 11:45:00 -3.2 C 3.68 g/m*3 -3.2 C 3.2 km/h
131 30-11-2020 11:50:00 -3.2 C 3.72 g/m*3 -3.2 C 0 km/h
132 30-11-2020 11:55:00 -3.1 C 3.71 g/m*3 -3.1 C 0 km/h
133 30-11-2020 12:00:00 -2.9 C 3.76 g/m*3 -2.9 C 3.2 km/h
134 30-11-2020 12:05:00 -2.9 C 3.8 g/m*3 -2.9 C 1.6 km/h
135 30-11-2020 12:10:00 -2.8 C 3.82 g/m*3 -2.8 C 0 km/h
136 30-11-2020 12:15:00 -2.8 C 3.78 g/m*3 -2.8 C 0 km/h
137 30-11-2020 12:20:00 -2.7 C 3.81 g/m*3 -2.7 C 0 km/h
138 30-11-2020 12:25:00 -2.6 C 3.84 g/m*3 -2.6 C 3.2 km/h
139 30-11-2020 12:30:00 -2.4 C 3.93 g/m*3 -2.4 C 1.6 km/h
140 30-11-2020 12:35:00 -2.3 C 3.96 g/m*3 -2.3 C 4.8 km/h
141 30-11-2020 12:40:00 -2.1 C 4.02 g/m*3 -2.1 C 0 km/h
142 30-11-2020 12:45:00 -1.8 C 4.1 g/m*3 -1.8 C 3.2 km/h
143 30-11-2020 12:50:00 -1.5 C 4.19 g/m*3 -1.5 C 0 km/h
144 30-11-2020 12:55:00 -1.2 C 4.28 g/m*3 -1.2 C 3.2 km/h
145 30-11-2020 13:00:00 -0.9 C 4.37 g/m*3 -3.22 C 6.4 km/h
146 30-11-2020 13:05:00 -0.7 C 4.43 g/m*3 -2.99 C 6.4 km/h
147 30-11-2020 13:10:00 -0.5 C 4.49 g/m*3 -0.5 C 1.6 km/h
148 30-11-2020 13:15:00 -0.3 C 4.56 g/m*3 -0.3 C 0 km/h
149 30-11-2020 13:20:00 -0.2 C 4.59 g/m*3 -0.2 C 0 km/h
150 30-11-2020 13:25:00 -0.1 C 4.62 g/m*3 -0.1 C 4.8 km/h
Sensor: Nr:Datum:Temp:Abs-Feuchte:Windchill:Wind:
Aussen-T/F 151 30-11-2020 13:30:00 0.1 C 4.68 g/m*3 0.1 C 4.8 km/h
152 30-11-2020 13:35:00 0.2 C 4.72 g/m*3 0.2 C 3.2 km/h
153 30-11-2020 13:40:00 0.4 C 4.78 g/m*3 0.4 C 3.2 km/h
154 30-11-2020 13:45:00 0.5 C 4.86 g/m*3 0.5 C 0 km/h
155 30-11-2020 13:50:00 0.7 C 4.88 g/m*3 0.7 C 1.6 km/h
156 30-11-2020 13:55:00 0.9 C 5 g/m*3 -2.16 C 9.7 km/h
157 30-11-2020 14:00:00 1.1 C 5.02 g/m*3 1.1 C 1.6 km/h
158 30-11-2020 14:05:00 1.3 C 5.14 g/m*3 1.3 C 4.8 km/h
159 30-11-2020 14:10:00 1.6 C 5.25 g/m*3 -1.33 C 9.7 km/h
160 30-11-2020 14:15:00 1.8 C 5.26 g/m*3 1.8 C 4.8 km/h
161 30-11-2020 14:20:00 2 C 5.28 g/m*3 2 C 0 km/h
162 30-11-2020 14:25:00 2.1 C 5.26 g/m*3 -0.73 C 9.7 km/h
163 30-11-2020 14:30:00 2.2 C 5.24 g/m*3 2.2 C 1.6 km/h
164 30-11-2020 14:35:00 2.3 C 5.27 g/m*3 2.3 C 3.2 km/h
165 30-11-2020 14:40:00 2.4 C 5.25 g/m*3 2.4 C 0 km/h
166 30-11-2020 14:45:00 2.4 C 5.25 g/m*3 2.4 C 4.8 km/h
167 30-11-2020 14:50:00 2.5 C 5.23 g/m*3 2.5 C 4.8 km/h
168 30-11-2020 14:55:00 2.5 C 5.17 g/m*3 2.5 C 1.6 km/h
169 30-11-2020 15:00:00 2.4 C 5.14 g/m*3 2.4 C 1.6 km/h
170 30-11-2020 15:05:00 2.3 C 5.05 g/m*3 2.3 C 1.6 km/h
171 30-11-2020 15:10:00 2.2 C 5.07 g/m*3 2.2 C 0 km/h
172 30-11-2020 15:15:00 2 C 4.95 g/m*3 2 C 3.2 km/h
173 30-11-2020 15:20:00 2 C 4.95 g/m*3 2 C 1.6 km/h
174 30-11-2020 15:25:00 2.1 C 4.98 g/m*3 2.1 C 1.6 km/h
175 30-11-2020 15:30:00 2.1 C 4.98 g/m*3 2.1 C 4.8 km/h
Sensor: Nr:Datum:Temp:Abs-Feuchte:Windchill:Wind:
Aussen-T/F 176 30-11-2020 15:35:00 2.2 C 4.96 g/m*3 -0.18 C 8.1 km/h
177 30-11-2020 15:40:00 2.3 C 4.93 g/m*3 2.3 C 4.8 km/h
178 30-11-2020 15:45:00 2.4 C 4.97 g/m*3 2.4 C 4.8 km/h
179 30-11-2020 15:50:00 2.5 C 4.94 g/m*3 0.17 C 8.1 km/h
180 30-11-2020 15:55:00 2.6 C 4.92 g/m*3 0.82 C 6.4 km/h
181 30-11-2020 16:00:00 2.7 C 4.89 g/m*3 -0.38 C 11.3 km/h
182 30-11-2020 16:05:00 2.8 C 4.93 g/m*3 -0.26 C 11.3 km/h
183 30-11-2020 16:10:00 2.9 C 4.9 g/m*3 -0.76 C 14.5 km/h
184 30-11-2020 16:15:00 3 C 4.93 g/m*3 -0.63 C 14.5 km/h
185 30-11-2020 16:20:00 3 C 4.93 g/m*3 0.34 C 9.7 km/h
186 30-11-2020 16:25:00 3 C 4.93 g/m*3 -0.02 C 11.3 km/h
187 30-11-2020 16:30:00 3 C 4.93 g/m*3 0.34 C 9.7 km/h
188 30-11-2020 16:35:00 3 C 4.93 g/m*3 -0.02 C 11.3 km/h
189 30-11-2020 16:40:00 2.9 C 4.9 g/m*3 0.64 C 8.1 km/h
190 30-11-2020 16:45:00 2.9 C 4.9 g/m*3 2.9 C 4.8 km/h
191 30-11-2020 16:50:00 2.8 C 4.87 g/m*3 2.8 C 4.8 km/h
192 30-11-2020 16:55:00 2.8 C 4.87 g/m*3 2.8 C 4.8 km/h
193 30-11-2020 17:00:00 2.8 C 4.87 g/m*3 1.05 C 6.4 km/h
194 30-11-2020 17:05:00 2.7 C 4.84 g/m*3 2.7 C 4.8 km/h
195 30-11-2020 17:10:00 2.7 C 4.84 g/m*3 0.4 C 8.1 km/h
196 30-11-2020 17:15:00 2.8 C 4.87 g/m*3 0.1 C 9.7 km/h
197 30-11-2020 17:20:00 2.8 C 4.87 g/m*3 -0.26 C 11.3 km/h
198 30-11-2020 17:25:00 2.8 C 4.87 g/m*3 0.52 C 8.1 km/h
199 30-11-2020 17:30:00 2.8 C 4.87 g/m*3 -0.26 C 11.3 km/h
200 30-11-2020 17:35:00 2.9 C 4.9 g/m*3 0.64 C 8.1 km/h
Sensor: Nr:Datum:Temp:Abs-Feuchte:Windchill:Wind:
Aussen-T/F 201 30-11-2020 17:40:00 2.9 C 4.9 g/m*3 0.22 C 9.7 km/h
202 30-11-2020 17:45:00 2.9 C 4.9 g/m*3 -0.14 C 11.3 km/h
203 30-11-2020 17:50:00 2.9 C 4.9 g/m*3 1.17 C 6.4 km/h
204 30-11-2020 17:55:00 2.9 C 4.9 g/m*3 0.22 C 9.7 km/h
205 30-11-2020 18:00:00 2.9 C 4.9 g/m*3 1.17 C 6.4 km/h
206 30-11-2020 18:05:00 2.9 C 4.9 g/m*3 -0.76 C 14.5 km/h
207 30-11-2020 18:10:00 3 C 4.93 g/m*3 -1.36 C 19.3 km/h
208 30-11-2020 18:15:00 3.1 C 4.91 g/m*3 0.1 C 11.3 km/h
209 30-11-2020 18:20:00 3.1 C 4.91 g/m*3 -0.51 C 14.5 km/h
210 30-11-2020 18:25:00 3.2 C 4.94 g/m*3 0.58 C 9.7 km/h
211 30-11-2020 18:30:00 3.2 C 4.94 g/m*3 -0.89 C 17.7 km/h
212 30-11-2020 18:35:00 3.2 C 4.94 g/m*3 -0.65 C 16.1 km/h
213 30-11-2020 18:40:00 3.1 C 4.91 g/m*3 -0.77 C 16.1 km/h
214 30-11-2020 18:45:00 3.1 C 4.91 g/m*3 -0.77 C 16.1 km/h
215 30-11-2020 18:50:00 3.1 C 4.97 g/m*3 -0.51 C 14.5 km/h
216 30-11-2020 18:55:00 3 C 4.99 g/m*3 -1.14 C 17.7 km/h

Legende:
   Min
   Max


Maximal/Minimal-Werte vom 30.11.2020 - 30.11.2020

Sensor Min Max Avg
Temp
(Aussen-T/F)
-5.8 °C
30-11-2020  08:05:00
3.2 °C
30-11-2020  18:25:00
-2.42 °C
Abs-Feuchte
(Aussen-T/F)
3.02 g/m*3
30-11-2020  08:05:00
5.28 g/m*3
30-11-2020  14:20:00
3.82 g/m*3
Windchill
(Aussen-T/F)
-5.8 C
30-11-2020  08:05:00
2.9 C
30-11-2020  16:45:00
-2.95 C

Die Daten stammen von einer Davis Vantage Pro 2 Wetter-Station und werden unter Linux mit der Software wview2wettercgi und aufbereitet. Alle Angaben erfolgen ohne Gewähr für ihre Vollständigkeit oder Richtigkeit.
Kontakt: Rainer Krienke krienke@uni-koblenz.de . Meine Webseiten an der Uni Koblenz oder privat.
Version: $Revision: 0.78 $